This demonstration page uses our WeatherBlox Daily Observations layout. Learn more.

Left ArrowRight Arrow

39.92423, -83.80882

Hourly Observations for November 20, 2015

Temp ( °F °C ) Dew Point ( °F °C ) Humidity (%) Winds ( mph kmh ) Pressure ( in mb ) Visibility ( mi km ) Precip ( " mm )
12:56 am 00:56 Clear 36 2.2 22 -5.5 57 57 WSW 10 17 30.27 1025 10 16.0934 0 0
1:56 am 01:56 Clear 35 1.6 21 -6.1 57 57 SW 9 15 30.27 1025 10 16.0934 0 0
2:56 am 02:56 Clear 32 0 21 -6.1 64 64 SW 7 11 30.27 1025 10 16.0934 0 0
3:56 am 03:56 Clear 32 0 20 -6.6 62 62 SSW 9 15 30.28 1026 10 16.0934 0 0
4:56 am 04:56 Clear 32 0 20 -6.6 62 62 SSW 9 15 30.3 1026 10 16.0934 0 0
5:56 am 05:56 Clear 31 -0.5 21 -6.1 66 66 WSW 7 11 30.32 1027 10 16.0934 0 0
6:56 am 06:56 Clear 31 -0.5 21 -6.1 66 66 WSW 8 13 30.33 1027 10 16.0934 0 0
7:56 am 07:56 Sunny 31 -0.5 21 -6.1 66 66 WSW 7 11 30.34 1028 10 16.0934 0 0
8:56 am 08:56 Sunny 37 2.7 22 -5.5 55 55 SW 8 13 30.36 1028 10 16.0934 0 0
9:56 am 09:56 Sunny 41 5 21 -6.1 45 45 WSW 12 19 30.36 1028 10 16.0934 0 0
10:56 am 10:56 Sunny 45 7.2 19 -7.2 35 35 WSW 10 17 30.37 1028 10 16.0934 0 0
11:56 am 11:56 Sunny 47 8.3 13 -10.5 25 25 W 14 22 30.35 1028 10 16.0934 0 0
12:56 pm 12:56 Sunny 48 8.8 15 -9.4 27 27 W 9 15 30.32 1027 10 16.0934 0 0
1:56 pm 13:56 Sunny 49 9.4 17 -8.3 28 28 W 12 19 30.31 1026 10 16.0934 0 0
2:56 pm 14:56 Sunny 48 8.8 17 -8.3 29 29 WNW 12 19 30.31 1026 10 16.0934 0 0
3:56 pm 15:56 Sunny 48 8.8 17 -8.3 29 29 W 9 15 30.29 1026 10 16.0934 0 0
4:56 pm 16:56 Sunny 44 6.6 20 -6.6 39 39 W 7 11 30.29 1026 10 16.0934 0 0
5:56 pm 17:56 Clear 40 4.4 19 -7.2 43 43 WNW 5 7 30.3 1026 10 16.0934 0 0
6:56 pm 18:56 Clear 39 3.8 25 -3.8 58 58 ESE 3 6 30.29 1026 10 16.0934 0 0
7:56 pm 19:56 Clear 39 3.8 30 -1.1 71 71 E 3 6 30.28 1026 10 16.0934 0 0
8:56 pm 20:56 Clear 40 4.4 25 -3.8 56 56 ESE 7 11 30.24 1024 10 16.0934 0 0
9:56 pm 21:56 Clear 41 5 24 -4.4 51 51 ESE 6 9 30.23 1024 10 16.0934 0 0
10:56 pm 22:56 Mostly Clear 40 4.4 25 -3.8 56 56 E 5 7 30.21 1023 10 16.0934 0 0
11:56 pm 23:56 Clear 39 3.8 27 -2.7 63 63 NE 7 11 30.23 1024 10 16.0934 0 0

Powered by AerisWeather